Weather History for Mansfield, OH

Change the Weather History Date:

Tuesday, March 12, 2013

  Actual Average Record
Temperature  
Mean Temperature 32 °F 36 °F  
Max Temperature 37 °F 44 °F 72 °F (1990)
Min Temperature 26 °F 27 °F -20 °F (1948)
Degree Days  
Heating Degree Days 33 29  
Month to date heating degree days 374 377  
Since 1 July heating degree days 4747 5002  
Cooling Degree Days 0 0  
Month to date cooling degree days 0 0  
Year to date cooling degree days 0 0  
Moisture  
Dew Point 29 °F    
Average Humidity 81    
Maximum Humidity 92    
Minimum Humidity 69    
Precipitation  
Precipitation 0.01 in 0.11 in 1.83 in (2006)
Month to date precipitation 0.93 1.16  
Year to date precipitation 5.66 6.42  
Snow  
Snow T in 0.30 in - ()
Month to date snowfall 4.1 3.9  
Since 1 July snowfall 33.9 41.8  
Snow Depth 0.00 in    
Sea Level Pressure  
Sea Level Pressure 29.91 in    
Wind  
Wind Speed 11 mph (SW)    
Max Wind Speed 16 mph    
Max Gust Speed 23 mph    
Visibility 9 miles    
Events Snow    
T = Trace of Precipitation, MM = Missing Value Source: NWS Daily Summary

Daily Weather History Graph

Daily Weather History Graph

Search for Another Location

Airport:

Trip Planner

Search our weather history database for the weather conditions in past years. The results will help you decide how hot, cold, wet, or windy it might be!

Date:

Astronomy

Mar. 12, 2013 Rise Set
Actual Time 7:46 AM EDT 7:33 PM EDT
Civil Twilight 7:18 AM EDT 8:01 PM EDT
Nautical Twilight 6:47 AM EDT 8:32 PM EDT
Astronomical Twilight 6:15 AM EDT 9:05 PM EDT
Moon 7:51 AM EDT (3/12) 8:48 PM EDT (3/12)
Length of Visible Light 12h 42m
Length of Day
11h 47m
New Moon, 1% of the Moon is Illuminated
Mar 12
New Moon
Mar 19
First Quarter
Mar 27
Full
Apr 3
Last Quarter
Apr 10
New

Hourly Weather History & Observations

Time (EDT) Temp. Windchill Dew Point Humidity Pressure Visibility Wind Dir Wind Speed Gust Speed Precip Events Conditions
12:52 AM 37.0 °F 28.9 °F 33.1 °F 86% 29.79 in 10.0 mi WSW 12.7 mph 20.7 mph N/A   Overcast
1:05 AM 37.4 °F 30.3 °F 33.8 °F 87% 29.77 in 10.0 mi WSW 10.4 mph 16.1 mph N/A   Overcast
1:20 AM 37.4 °F 29.3 °F 32.0 °F 81% 29.78 in 10.0 mi West 12.7 mph 19.6 mph N/A   Overcast
1:52 AM 37.0 °F 28.9 °F 32.0 °F 82% 29.81 in 10.0 mi WSW 12.7 mph - N/A   Overcast
2:52 AM 35.1 °F 27.9 °F 30.9 °F 85% 29.82 in 10.0 mi WSW 9.2 mph - N/A   Overcast
3:52 AM 35.1 °F 27.9 °F 30.0 °F 82% 29.83 in 10.0 mi WSW 9.2 mph 17.3 mph 0.00 in   Overcast
4:04 AM 35.6 °F 29.2 °F 30.2 °F 81% 29.81 in 10.0 mi WSW 8.1 mph - N/A   Overcast
4:52 AM 34.0 °F 24.2 °F 28.9 °F 82% 29.83 in 10.0 mi WSW 15.0 mph 21.9 mph 0.00 in   Overcast
5:52 AM 34.0 °F 24.6 °F 28.0 °F 79% 29.85 in 10.0 mi SW 13.8 mph - N/A   Overcast
6:52 AM 33.1 °F 22.6 °F 28.9 °F 85% 29.87 in 10.0 mi WSW 16.1 mph 20.7 mph N/A   Overcast
7:52 AM 32.0 °F 22.1 °F 30.0 °F 92% 29.89 in 6.0 mi SW 13.8 mph 18.4 mph N/A   Overcast
8:20 AM 32.0 °F 22.5 °F 28.4 °F 87% 29.87 in 8.0 mi WSW 12.7 mph 19.6 mph N/A   Overcast
8:52 AM 32.0 °F 23.0 °F 28.9 °F 88% 29.91 in 6.0 mi WSW 11.5 mph - N/A   Overcast
9:43 AM 32.0 °F 26.4 °F 30.2 °F 93% 29.89 in 5.0 mi SW 5.8 mph - N/A   Overcast
9:52 AM 33.1 °F 26.1 °F 30.0 °F 89% 29.92 in 8.0 mi WSW 8.1 mph - N/A   Overcast
10:04 AM 33.8 °F 26.4 °F 30.2 °F 87% 29.89 in 10.0 mi SW 9.2 mph - N/A   Overcast
10:47 AM 32.0 °F 23.6 °F 28.4 °F 87% 29.90 in 7.0 mi WSW 10.4 mph - N/A   Overcast
10:52 AM 32.0 °F 22.5 °F 30.0 °F 92% 29.93 in 7.0 mi SW 12.7 mph 17.3 mph N/A   Overcast
11:15 AM 32.0 °F 23.0 °F 30.2 °F 93% 29.90 in 6.0 mi WSW 11.5 mph 20.7 mph N/A   Overcast
11:52 AM 32.0 °F 23.0 °F 30.0 °F 92% 29.93 in 6.0 mi WSW 11.5 mph 19.6 mph N/A   Overcast
12:10 PM 33.8 °F 24.8 °F 30.2 °F 87% 29.90 in 8.0 mi SW 12.7 mph 21.9 mph N/A   Overcast
12:52 PM 33.1 °F 24.4 °F 28.9 °F 85% 29.93 in 8.0 mi WSW 11.5 mph - N/A   Overcast
1:37 PM 35.6 °F 25.9 °F 28.4 °F 75% 29.89 in 10.0 mi WSW 16.1 mph 24.2 mph N/A   Overcast
1:52 PM 35.1 °F 26.4 °F 28.0 °F 76% 29.94 in 10.0 mi WSW 12.7 mph 23.0 mph N/A   Overcast
2:25 PM 33.8 °F 22.5 °F 26.6 °F 75% 29.90 in 10.0 mi SW 19.6 mph 27.6 mph N/A   Overcast
2:33 PM 35.6 °F 25.9 °F 26.6 °F 70% 29.90 in 10.0 mi WSW 16.1 mph 25.3 mph N/A   Overcast
2:44 PM 33.8 °F 23.2 °F 26.6 °F 75% 29.90 in 10.0 mi WSW 17.3 mph 24.2 mph N/A   Overcast
2:52 PM 34.0 °F 23.8 °F 27.0 °F 75% 29.94 in 10.0 mi WSW 16.1 mph 21.9 mph N/A   Overcast
3:52 PM 33.1 °F 23.0 °F 27.0 °F 78% 29.94 in 10.0 mi WSW 15.0 mph 21.9 mph N/A   Overcast
4:52 PM 33.1 °F 24.4 °F 27.0 °F 78% 29.94 in 10.0 mi SW 11.5 mph - N/A   Overcast
5:52 PM 34.0 °F 26.0 °F 26.1 °F 73% 29.96 in 10.0 mi WSW 10.4 mph 18.4 mph N/A   Overcast
6:52 PM 33.1 °F 23.9 °F 25.0 °F 72% 29.97 in 10.0 mi WSW 12.7 mph - N/A   Overcast
7:16 PM 33.8 °F 25.8 °F 26.6 °F 75% 29.94 in 10.0 mi WSW 10.4 mph - N/A   Overcast
7:52 PM 33.1 °F 27.7 °F 26.1 °F 75% 29.98 in 10.0 mi SW 5.8 mph - N/A   Overcast
8:31 PM 33.8 °F 29.6 °F 26.6 °F 75% 29.95 in 10.0 mi SW 4.6 mph - N/A   Overcast
8:43 PM 33.8 °F - 26.6 °F 75% 29.95 in 10.0 mi Calm Calm - N/A   Overcast
8:52 PM 33.1 °F 30.0 °F 27.0 °F 78% 29.99 in 10.0 mi SW 3.5 mph - N/A   Overcast
8:59 PM 33.8 °F 29.6 °F 26.6 °F 75% 29.95 in 10.0 mi SW 4.6 mph - N/A   Overcast
9:24 PM 32.0 °F 26.4 °F 26.6 °F 80% 29.95 in 5.0 mi SSW 5.8 mph - 0.01 in Snow Light Snow
9:52 PM 32.0 °F 24.8 °F 28.9 °F 88% 29.99 in 10.0 mi South 8.1 mph - 0.01 in   Mostly Cloudy
10:10 PM 32.0 °F 25.6 °F 28.4 °F 87% 29.96 in 8.0 mi SSW 6.9 mph - N/A   Overcast
10:39 PM 32.0 °F 25.6 °F 28.4 °F 87% 29.96 in 10.0 mi SW 6.9 mph - 0.00 in   Scattered Clouds
10:52 PM 32.0 °F 24.8 °F 28.0 °F 85% 29.99 in 10.0 mi SW 8.1 mph - 0.00 in   Clear
11:52 PM 28.0 °F 22.8 °F 26.1 °F 92% 29.99 in 10.0 mi SW 4.6 mph - N/A   Clear